Time,TemperatureF,DewpointF,PressureIn,WindDirection,WindDirectionDegrees,WindSpeedMPH,WindSpeedGustMPH,Humidity,HourlyPrecipIn,Conditions,Clouds,dailyrainin,SoftwareType,DateUTC
2013-09-08 00:22:00,62.0,-99.9,-100.00,North,-999,-999.0,-999.0,-999,-99.99,,,0.04,,2013-09-08 06:22:00,
2013-09-08 00:33:00,62.0,-99.9,-100.00,North,-999,-999.0,-999.0,-999,-99.99,,,0.04,,2013-09-08 06:33:00,
2013-09-08 00:42:00,62.0,-99.9,-100.00,North,-999,-999.0,-999.0,-999,-99.99,,,0.04,,2013-09-08 06:42:00,
2013-09-08 01:23:00,58.0,-99.9,-100.00,North,-999,-999.0,-999.0,-999,0.00,,,0.04,,2013-09-08 07:23:00,
2013-09-08 01:32:00,58.0,-99.9,-100.00,North,-999,-999.0,-999.0,-999,0.00,,,0.04,,2013-09-08 07:32:00,
2013-09-08 01:42:00,58.0,-99.9,-100.00,North,-999,-999.0,-999.0,-999,0.00,,,0.04,,2013-09-08 07:42:00,
2013-09-08 02:23:00,61.0,-99.9,-100.00,North,-999,-999.0,-999.0,-999,0.00,,,0.04,,2013-09-08 08:23:00,
2013-09-08 02:32:00,61.0,-99.9,-100.00,North,-999,-999.0,-999.0,-999,0.00,,,0.04,,2013-09-08 08:32:00,
2013-09-08 02:42:00,61.0,-99.9,-100.00,North,-999,-999.0,-999.0,-999,0.00,,,0.04,,2013-09-08 08:42:00,
2013-09-08 03:12:00,54.0,-99.9,-100.00,North,-999,-999.0,-999.0,-999,0.00,,,0.04,,2013-09-08 09:12:00,
2013-09-08 03:22:00,54.0,-99.9,-100.00,North,-999,-999.0,-999.0,-999,0.00,,,0.04,,2013-09-08 09:22:00,
2013-09-08 03:34:00,54.0,-99.9,-100.00,North,-999,-999.0,-999.0,-999,0.00,,,0.04,,2013-09-08 09:34:00,
2013-09-08 03:43:00,54.0,-99.9,-100.00,North,-999,-999.0,-999.0,-999,0.00,,,0.04,,2013-09-08 09:43:00,
2013-09-08 04:12:00,52.0,-99.9,-100.00,North,-999,-999.0,-999.0,-999,0.00,,,0.04,,2013-09-08 10:12:00,
2013-09-08 04:23:00,52.0,-99.9,-100.00,North,-999,-999.0,-999.0,-999,0.00,,,0.04,,2013-09-08 10:23:00,
2013-09-08 04:34:00,52.0,-99.9,-100.00,North,-999,-999.0,-999.0,-999,0.00,,,0.04,,2013-09-08 10:34:00,
2013-09-08 04:43:00,52.0,-99.9,-100.00,North,-999,-999.0,-999.0,-999,0.00,,,0.04,,2013-09-08 10:43:00,
2013-09-08 05:42:00,48.0,-99.9,-100.00,North,-999,-999.0,-999.0,-999,0.00,,,0.04,,2013-09-08 11:42:00,
2013-09-08 08:12:00,49.0,-99.9,-100.00,North,-999,-999.0,-999.0,-999,-99.99,,,0.04,,2013-09-08 14:12:00,
2013-09-08 08:22:00,49.0,-99.9,-100.00,North,-999,-999.0,-999.0,-999,-99.99,,,0.04,,2013-09-08 14:22:00,
2013-09-08 08:32:00,49.0,-99.9,-100.00,North,-999,-999.0,-999.0,-999,-99.99,,,0.04,,2013-09-08 14:32:00,
2013-09-08 08:42:00,49.0,-99.9,-100.00,North,-999,-999.0,-999.0,-999,-99.99,,,0.04,,2013-09-08 14:42:00,
2013-09-08 08:45:00,58.0,-99.9,-100.00,North,-999,-999.0,-999.0,-999,-99.99,,,0.04,,2013-09-08 14:45:00,
2013-09-08 09:12:00,58.0,-99.9,-100.00,North,-999,-999.0,-999.0,-999,-99.99,,,0.04,,2013-09-08 15:12:00,
2013-09-08 09:23:00,58.0,-99.9,-100.00,North,-999,-999.0,-999.0,-999,-99.99,,,0.04,,2013-09-08 15:23:00,
2013-09-08 09:34:00,58.0,-99.9,-100.00,North,-999,-999.0,-999.0,-999,-99.99,,,0.04,,2013-09-08 15:34:00,
2013-09-08 11:12:00,71.0,-99.9,-100.00,North,-999,-999.0,-999.0,-999,-99.99,,,0.04,,2013-09-08 17:12:00,
2013-09-08 11:24:00,71.0,-99.9,-100.00,North,-999,-999.0,-999.0,-999,-99.99,,,0.04,,2013-09-08 17:24:00,
2013-09-08 11:34:00,71.0,-99.9,-100.00,North,-999,-999.0,-999.0,-999,-99.99,,,0.04,,2013-09-08 17:34:00,
2013-09-08 11:43:00,71.0,-99.9,-100.00,North,-999,-999.0,-999.0,-999,-99.99,,,0.04,,2013-09-08 17:43:00,
2013-09-08 12:22:00,73.0,-99.9,-100.00,North,-999,-999.0,-999.0,-999,0.00,,,0.04,,2013-09-08 18:22:00,
2013-09-08 12:32:00,73.0,-99.9,-100.00,North,-999,-999.0,-999.0,-999,0.00,,,0.04,,2013-09-08 18:32:00,
2013-09-08 12:43:00,73.0,-99.9,-100.00,North,-999,-999.0,-999.0,-999,0.00,,,0.04,,2013-09-08 18:43:00,
2013-09-08 13:12:00,70.0,-99.9,-100.00,North,-999,-999.0,-999.0,-999,0.00,,,0.04,,2013-09-08 19:12:00,
2013-09-08 13:22:00,70.0,-99.9,-100.00,North,-999,-999.0,-999.0,-999,0.00,,,0.04,,2013-09-08 19:22:00,
2013-09-08 13:32:00,70.0,-99.9,-100.00,North,-999,-999.0,-999.0,-999,0.00,,,0.04,,2013-09-08 19:32:00,
2013-09-08 13:42:00,70.0,-99.9,-100.00,North,-999,-999.0,-999.0,-999,0.00,,,0.04,,2013-09-08 19:42:00,
2013-09-08 14:12:00,74.0,-99.9,-100.00,North,-999,-999.0,-999.0,-999,0.00,,,0.04,,2013-09-08 20:12:00,
2013-09-08 14:22:00,74.0,-99.9,-100.00,North,-999,-999.0,-999.0,-999,0.00,,,0.04,,2013-09-08 20:22:00,
2013-09-08 14:32:00,74.0,-99.9,-100.00,North,-999,-999.0,-999.0,-999,0.00,,,0.04,,2013-09-08 20:32:00,
2013-09-08 14:42:00,74.0,-99.9,-100.00,North,-999,-999.0,-999.0,-999,0.00,,,0.04,,2013-09-08 20:42:00,
2013-09-08 15:22:00,65.0,-99.9,-100.00,North,-999,-999.0,-999.0,-999,0.00,,,0.04,,2013-09-08 21:22:00,
2013-09-08 15:34:00,65.0,-99.9,-100.00,North,-999,-999.0,-999.0,-999,0.00,,,0.04,,2013-09-08 21:34:00,
2013-09-08 15:44:00,65.0,-99.9,-100.00,North,-999,-999.0,-999.0,-999,0.00,,,0.04,,2013-09-08 21:44:00,
2013-09-08 16:13:00,63.0,-99.9,-100.00,North,-999,-999.0,-999.0,-999,0.04,,,0.08,,2013-09-08 22:13:00,
2013-09-08 16:25:00,63.0,-99.9,-100.00,North,-999,-999.0,-999.0,-999,0.04,,,0.08,,2013-09-08 22:25:00,
2013-09-08 16:34:00,63.0,-99.9,-100.00,North,-999,-999.0,-999.0,-999,0.04,,,0.08,,2013-09-08 22:34:00,
2013-09-08 16:44:00,63.0,-99.9,-100.00,North,-999,-999.0,-999.0,-999,0.04,,,0.08,,2013-09-08 22:44:00,
2013-09-08 18:12:00,61.0,-99.9,-100.00,North,-999,-999.0,-999.0,-999,-99.99,,,0.13,,2013-09-09 00:12:00,
2013-09-08 18:22:00,61.0,-99.9,-100.00,North,-999,-999.0,-999.0,-999,-99.99,,,0.13,,2013-09-09 00:22:00,
2013-09-08 18:32:00,61.0,-99.9,-100.00,North,-999,-999.0,-999.0,-999,-99.99,,,0.13,,2013-09-09 00:32:00,
2013-09-08 18:42:00,61.0,-99.9,-100.00,North,-999,-999.0,-999.0,-999,-99.99,,,0.13,,2013-09-09 00:42:00,
2013-09-08 19:22:00,59.0,-99.9,-100.00,North,-999,-999.0,-999.0,-999,0.00,,,0.09,,2013-09-09 01:22:00,
2013-09-08 19:32:00,59.0,-99.9,-100.00,North,-999,-999.0,-999.0,-999,0.00,,,0.09,,2013-09-09 01:32:00,
2013-09-08 19:42:00,59.0,-99.9,-100.00,North,-999,-999.0,-999.0,-999,0.00,,,0.09,,2013-09-09 01:42:00,
2013-09-08 20:11:00,56.0,-99.9,-100.00,North,-999,-999.0,-999.0,-999,0.00,,,0.09,,2013-09-09 02:11:00,
2013-09-08 20:22:00,56.0,-99.9,-100.00,North,-999,-999.0,-999.0,-999,0.00,,,0.09,,2013-09-09 02:22:00,
2013-09-08 20:32:00,56.0,-99.9,-100.00,North,-999,-999.0,-999.0,-999,0.00,,,0.09,,2013-09-09 02:32:00,
2013-09-08 20:42:00,56.0,-99.9,-100.00,North,-999,-999.0,-999.0,-999,0.00,,,0.09,,2013-09-09 02:42:00,
2013-09-08 21:12:00,54.0,-99.9,-100.00,North,-999,-999.0,-999.0,-999,0.00,,,0.09,,2013-09-09 03:12:00,
2013-09-08 21:22:00,54.0,-99.9,-100.00,North,-999,-999.0,-999.0,-999,0.00,,,0.09,,2013-09-09 03:22:00,
2013-09-08 21:35:00,54.0,-99.9,-100.00,North,-999,-999.0,-999.0,-999,0.00,,,0.09,,2013-09-09 03:35:00,
2013-09-08 21:44:00,54.0,-99.9,-100.00,North,-999,-999.0,-999.0,-999,0.00,,,0.09,,2013-09-09 03:44:00,
2013-09-08 22:24:00,54.0,-99.9,-100.00,North,-999,-999.0,-999.0,-999,0.00,,,0.09,,2013-09-09 04:24:00,
2013-09-08 22:34:00,54.0,-99.9,-100.00,North,-999,-999.0,-999.0,-999,0.00,,,0.09,,2013-09-09 04:34:00,
2013-09-08 22:44:00,54.0,-99.9,-100.00,North,-999,-999.0,-999.0,-999,0.00,,,0.09,,2013-09-09 04:44:00,
2013-09-08 23:23:00,54.0,-99.9,-100.00,North,-999,-999.0,-999.0,-999,0.01,,,-99.99,,2013-09-09 05:23:00,
2013-09-08 23:34:00,54.0,-99.9,-100.00,North,-999,-999.0,-999.0,-999,0.01,,,-99.99,,2013-09-09 05:34:00,
2013-09-08 23:43:00,54.0,-99.9,-100.00,North,-999,-999.0,-999.0,-999,0.01,,,-99.99,,2013-09-09 05:43:00,